Location: Ferchesar
(52.6477°N, 12.4298°E)
Time: 03:34:40
(UTC+01:00)

Vanguard 3 - Pass Details

Date: 08 December 2021
Orbit: 508 x 3260 km, 33.3° (Epoch: 21 January)

Event Time Altitude Azimuth Distance (km) Brightness Sun altitude
Rises 09:12:52 0° 272° (W) 7,028 11.5 6.1°
Reaches altitude 10° 09:21:31 10° 252° (WSW) 5,557 11.2 6.9°
Maximum altitude 09:27:42 13° 229° (SW) 4,809 11.2 7.4°
Drops below altitude 10° 09:33:00 10° 205° (SSW) 4,602 11.5 7.9°
Sets 09:38:43 0° 181° (S) 4,984 12.2 8.4°
